Manistique, MI

12:41 AM EST on February 28, 2017 (GMT -0500)
Schoolcraft County

Weather History for KISQ - October, 2012

Change the Weather History Date:

Thursday, October 25, 2012

  Actual Average Record
Temperature  
Mean Temperature 53 °F -  
Max Temperature 62 °F 50 °F 70 °F (1964)
Min Temperature 42 °F 36 °F 20 °F (1960)
Degree Days  
Heating Degree Days 12    
Growing Degree Days 3 (Base 50)    
Moisture  
Dew Point 54 °F    
Average Humidity 88    
Maximum Humidity 94    
Minimum Humidity 81    
Precipitation  
Precipitation 0.00 in - - ()
Sea Level Pressure  
Sea Level Pressure 29.66 in    
Wind  
Wind Speed 10 mph (SSW)    
Max Wind Speed 22 mph    
Max Gust Speed 31 mph    
Visibility 8 miles    
Events Rain    
Averages and records for this station are not official NWS values.
T = Trace of Precipitation, MM = Missing Value Source: NWS Daily Summary

Daily Weather History Graph

Daily Weather History Graph

Search for Another Location

Airport or City:

Trip Planner

Search our weather history database for the weather conditions in past years. The results will help you decide how hot, cold, wet, or windy it might be!

Date:

Astronomy

Oct. 25, 2012 Rise Set
Actual Time 8:15 AM EDT 6:40 PM EDT
Civil Twilight 7:45 AM EDT 7:11 PM EDT
Nautical Twilight 7:10 AM EDT 7:46 PM EDT
Astronomical Twilight 6:35 AM EDT 8:20 PM EDT
Moon 4:36 PM EDT (10/25) 4:00 AM EDT (10/25)
Length of Visible Light 11h 26m
Length of Day
10h 24m
Waxing Gibbous, 84% of the Moon is Illuminated
Oct 25
Waxing Gibbous
Oct 29
Full
Nov 6
Last Quarter
Nov 13
New
Nov 20
First Quarter

Hourly Weather History & Observations

Time (EDT) Temp. Windchill Dew Point Humidity Pressure Visibility Wind Dir Wind Speed Gust Speed Precip Events Conditions
12:14 AM 57.2 °F - 55.4 °F 94% 29.80 in 4.0 mi ESE 9.2 mph - N/A   Overcast
12:35 AM 57.2 °F - 55.4 °F 94% 29.79 in 4.0 mi ESE 8.1 mph - N/A   Overcast
12:55 AM 57.2 °F - 55.4 °F 94% 29.78 in 4.0 mi SE 10.4 mph - N/A   Mostly Cloudy
1:35 AM 60.8 °F - 57.2 °F 88% 29.78 in 7.0 mi SSE 10.4 mph - N/A   Overcast
1:54 AM 60.8 °F - 57.2 °F 88% 29.77 in 7.0 mi SSE 5.8 mph - N/A   Mostly Cloudy
2:14 AM 59.0 °F - 55.4 °F 88% 29.78 in 7.0 mi SSE 4.6 mph - N/A   Scattered Clouds
2:35 AM 59.0 °F - 55.4 °F 88% 29.77 in 7.0 mi SSE 4.6 mph - N/A   Mostly Cloudy
2:54 AM 57.2 °F - 55.4 °F 94% 29.77 in 5.0 mi South 4.6 mph - N/A   Scattered Clouds
3:35 AM 57.2 °F - 55.4 °F 94% 29.76 in 5.0 mi SSE 4.6 mph - N/A   Mostly Cloudy
3:54 AM 57.2 °F - 55.4 °F 94% 29.74 in 4.0 mi South 3.5 mph - N/A   Scattered Clouds
4:15 AM 57.2 °F - 55.4 °F 94% 29.73 in 4.0 mi South 3.5 mph - N/A   Scattered Clouds
4:34 AM 57.2 °F - 55.4 °F 94% 29.72 in 4.0 mi South 4.6 mph - N/A   Scattered Clouds
4:54 AM 57.2 °F - 55.4 °F 94% 29.72 in 4.0 mi South 4.6 mph - N/A   Mostly Cloudy
5:15 AM 57.2 °F - 55.4 °F 94% 29.71 in 3.0 mi South 3.5 mph - N/A   Overcast
5:34 AM 57.2 °F - 55.4 °F 94% 29.71 in 4.0 mi Calm Calm - N/A   Overcast
5:55 AM 57.2 °F - 55.4 °F 94% 29.71 in 4.0 mi South 3.5 mph - N/A   Overcast
6:14 AM 57.2 °F - 55.4 °F 94% 29.71 in 5.0 mi SSW 3.5 mph - N/A   Overcast
6:34 AM 57.2 °F - 55.4 °F 94% 29.71 in 5.0 mi SSW 3.5 mph - N/A   Overcast
6:55 AM 57.2 °F - 55.4 °F 94% 29.70 in 7.0 mi South 9.2 mph - N/A   Scattered Clouds
7:14 AM 57.2 °F - 55.4 °F 94% 29.70 in 7.0 mi SSW 8.1 mph - N/A   Clear
7:55 AM 57.2 °F - 55.4 °F 94% 29.68 in 7.0 mi South 10.4 mph - N/A   Overcast
8:14 AM 59.0 °F - 55.4 °F 88% 29.68 in 10.0 mi SSW 10.4 mph 16.1 mph N/A   Overcast
8:35 AM 57.2 °F - 55.4 °F 94% 29.68 in 7.0 mi SSW 8.1 mph - N/A   Overcast
8:54 AM 57.2 °F - 55.4 °F 94% 29.68 in 7.0 mi SSW 8.1 mph - N/A   Scattered Clouds
9:35 AM 59.0 °F - 55.4 °F 88% 29.67 in 10.0 mi SSW 8.1 mph - N/A   Mostly Cloudy
9:54 AM 59.0 °F - 55.4 °F 88% 29.67 in 10.0 mi South 11.5 mph 16.1 mph N/A   Scattered Clouds
10:15 AM 60.8 °F - 57.2 °F 88% 29.66 in 10.0 mi South 11.5 mph - N/A   Clear
10:54 AM 60.8 °F - 57.2 °F 88% 29.64 in 10.0 mi South 13.8 mph 18.4 mph N/A   Clear
11:15 AM 60.8 °F - 57.2 °F 88% 29.64 in 10.0 mi South 12.7 mph 19.6 mph N/A   Mostly Cloudy
11:34 AM 60.8 °F - 57.2 °F 88% 29.65 in 10.0 mi South 15.0 mph 24.2 mph N/A   Overcast
11:55 AM 60.8 °F - 57.2 °F 88% 29.65 in 10.0 mi South 13.8 mph 20.7 mph N/A   Overcast
12:14 PM 62.6 °F - 57.2 °F 82% 29.63 in 10.0 mi South 15.0 mph 21.9 mph N/A   Scattered Clouds
12:35 PM 62.6 °F - 57.2 °F 82% 29.63 in 10.0 mi South 17.3 mph 23.0 mph N/A   Scattered Clouds
12:54 PM 60.8 °F - 57.2 °F 88% 29.64 in 10.0 mi South 15.0 mph 23.0 mph N/A   Mostly Cloudy
1:15 PM 60.8 °F - 55.4 °F 82% 29.62 in 10.0 mi SSW 16.1 mph 23.0 mph N/A   Overcast
1:35 PM 62.6 °F - 57.2 °F 82% 29.61 in 10.0 mi SSW 16.1 mph 21.9 mph N/A   Mostly Cloudy
1:54 PM 62.6 °F - 57.2 °F 82% 29.61 in 10.0 mi SSW 15.0 mph 25.3 mph N/A   Mostly Cloudy
2:15 PM 60.8 °F - 55.4 °F 82% 29.59 in 10.0 mi SSW 16.1 mph 20.7 mph N/A   Overcast
2:34 PM 60.8 °F - 55.4 °F 82% 29.59 in 10.0 mi SSW 15.0 mph 24.2 mph N/A   Overcast
2:55 PM 59.0 °F - 55.4 °F 88% 29.59 in 10.0 mi SSW 11.5 mph 18.4 mph N/A   Overcast
3:14 PM 59.0 °F - 55.4 °F 88% 29.58 in 10.0 mi SSW 11.5 mph 18.4 mph N/A   Overcast
3:34 PM 59.0 °F - 55.4 °F 88% 29.57 in 10.0 mi South 16.1 mph 21.9 mph N/A   Overcast
4:14 PM 59.0 °F - 55.4 °F 88% 29.57 in 10.0 mi SSW 13.8 mph 20.7 mph N/A   Overcast
4:35 PM 60.8 °F - 55.4 °F 82% 29.55 in 10.0 mi South 16.1 mph 23.0 mph N/A   Overcast
4:55 PM 60.8 °F - 55.4 °F 82% 29.55 in 10.0 mi SSW 15.0 mph 27.6 mph N/A   Overcast
5:14 PM 60.8 °F - 55.4 °F 82% 29.54 in 10.0 mi SSW 15.0 mph 26.5 mph N/A Rain Light Rain
5:35 PM 60.8 °F - 55.4 °F 82% 29.53 in 10.0 mi South 19.6 mph 25.3 mph N/A Rain Light Rain
5:54 PM 60.8 °F - 55.4 °F 82% 29.53 in 10.0 mi South 18.4 mph 28.8 mph N/A Rain Light Rain
6:14 PM 60.8 °F - 55.4 °F 82% 29.52 in 7.0 mi South 21.9 mph 31.1 mph N/A Rain Rain
6:35 PM 60.8 °F - 55.4 °F 82% 29.52 in 10.0 mi South 20.7 mph 28.8 mph N/A   Overcast
6:54 PM 60.8 °F - 55.4 °F 82% 29.53 in 10.0 mi South 16.1 mph 27.6 mph N/A   Overcast
7:15 PM 60.8 °F - 55.4 °F 82% 29.54 in 10.0 mi SSW 15.0 mph 24.2 mph N/A Rain Light Rain
7:35 PM 60.8 °F - 57.2 °F 88% 29.56 in 5.0 mi SW 11.5 mph 21.9 mph N/A Rain Heavy Rain
7:54 PM 59.0 °F - 55.4 °F 88% 29.56 in 2.0 mi SW 8.1 mph 17.3 mph N/A Rain Heavy Rain
8:15 PM 57.2 °F - 55.4 °F 94% 29.58 in 7.0 mi NNW 15.0 mph 21.9 mph N/A Rain Light Rain
8:34 PM 50.0 °F - 46.4 °F 87% 29.62 in 10.0 mi NW 12.7 mph 21.9 mph N/A   Light Drizzle
8:55 PM 48.2 °F - 44.6 °F 87% 29.62 in 7.0 mi NNW 13.8 mph 20.7 mph N/A Rain Rain
9:15 PM 46.4 °F 40.1 °F 44.6 °F 93% 29.66 in 4.0 mi NW 15.0 mph 21.9 mph N/A Rain Rain
9:34 PM 46.4 °F 40.4 °F 44.6 °F 93% 29.67 in 10.0 mi NW 13.8 mph - N/A Rain Rain
9:55 PM 44.6 °F 37.2 °F 42.8 °F 93% 29.65 in 10.0 mi NNW 17.3 mph 25.3 mph N/A Rain Light Rain
10:14 PM 44.6 °F 38.4 °F 41.0 °F 87% 29.68 in 10.0 mi NW 12.7 mph 20.7 mph N/A Rain Light Rain
10:35 PM 44.6 °F 37.8 °F 41.0 °F 87% 29.72 in 10.0 mi WNW 15.0 mph 19.6 mph N/A Rain Rain
10:55 PM 44.6 °F 38.1 °F 41.0 °F 87% 29.72 in 10.0 mi NW 13.8 mph 21.9 mph N/A Rain Light Rain
11:35 PM 44.6 °F 38.8 °F 39.2 °F 81% 29.76 in 10.0 mi WNW 11.5 mph 17.3 mph N/A   Overcast
11:54 PM 42.8 °F 37.0 °F 39.2 °F 87% 29.78 in 7.0 mi WNW 10.4 mph 17.3 mph N/A   Drizzle